W4FY Weather Reports


time (UTC)temp
C
wind
direction
speed
KPH
gust
KPH
rain 1hr
cm
rain 24hr
cm
rain mn
cm
humidity
%
barometer
mb
20260508213603 13 211 1.6 9.7 0.00 0.00 0.00 57 1021.4
20260508212918 13 196 1.6 6.4 0.00 0.00 0.00 57 1021.4
20260508211803 14 202 1.6 4.8 0.00 0.00 0.00 56 1021.4
20260508210903 13 205 1.6 12.9 0.00 0.00 0.00 57 1021.0
20260508210003 13 197 3.2 9.7 0.00 0.00 0.00 55 1021.4
20260508205403 13 188 1.6 6.4 0.00 0.00 0.00 54 1021.4
20260508204503 13 200 1.6 4.8 0.00 0.00 0.00 54 1021.0
20260508203603 13 205 1.6 6.4 0.00 0.00 0.00 54 1021.4
20260508202703 12 212 3.2 11.3 0.00 0.00 0.00 56 1021.8
20260508201803 13 203 4.8 9.7 0.00 0.00 0.00 50 1021.8
20260508200903 14 203 3.2 11.3 0.00 0.00 0.00 47 1021.8
20260508200218 14 220 3.2 11.3 0.00 0.00 0.00 51 1021.8
20260508195617 15 239 3.2 9.7 0.00 0.00 0.00 49 1022.2
20260508194503 14 234 3.2 9.7 0.00 0.00 0.00 45 1022.6
20260508193603 14 202 3.2 6.4 0.00 0.00 0.00 47 1022.6
20260508192703 15 216 3.2 9.7 0.00 0.00 0.00 46 1022.6
20260508191803 14 228 4.8 17.7 0.00 0.00 0.00 46 1022.6
20260508190903 14 209 3.2 17.7 0.00 0.00 0.00 43 1022.6
20260508190003 15 252 4.8 20.9 0.00 0.00 0.00 39 1022.6
20260508185403 15 191 4.8 20.9 0.00 0.00 0.00 43 1022.6
20260508184504 14 201 4.8 16.1 0.00 0.00 0.00 40 1022.6
20260508183603 14 175 3.2 6.4 0.00 0.00 0.00 43 1023.0
20260508182703 14 203 3.2 11.3 0.00 0.00 0.00 39 1022.6
20260508181803 13 203 4.8 14.5 0.00 0.00 0.00 40 1023.0
20260508180903 14 209 4.8 12.9 0.00 0.00 0.00 35 1023.0
20260508180003 13 214 3.2 9.7 0.00 0.00 0.00 43 1023.4
20260508175403 13 261 3.2 9.7 0.00 0.00 0.00 48 1023.4
20260508174503 13 174 4.8 12.9 0.00 0.00 0.00 52 1023.8
20260508173603 12 207 3.2 16.1 0.00 0.00 0.00 47 1023.4
20260508172703 12 207 4.8 14.5 0.00 0.00 0.00 47 1023.4
20260508172018 12 225 3.2 16.1 0.00 0.00 0.00 50 1023.8
20260508170903 12 211 1.6 4.8 0.00 0.00 0.00 51 1023.8
20260508170003 11 206 3.2 11.3 0.00 0.00 0.00 53 1023.8
20260508165403 11 186 3.2 11.3 0.00 0.00 0.00 47 1024.1
20260508164718 11 214 3.2 9.7 0.00 0.00 0.00 46 1023.8
20260508163817 11 217 3.2 6.4 0.00 0.00 0.00 49 1024.1
20260508162703 11 115 4.8 14.5 0.00 0.00 0.00 53 1024.1
20260508161803 11 191 3.2 6.4 0.00 0.00 0.00 46 1024.1
20260508160903 11 193 3.2 11.3 0.00 0.00 0.00 31 1024.1
20260508160003 10 183 3.2 11.3 0.00 0.00 0.00 35 1024.1
20260508155403 10 116 3.2 12.9 0.00 0.00 0.00 36 1024.5
20260508154503 11 130 4.8 14.5 0.00 0.00 0.00 33 1024.5
20260508153603 11 108 3.2 16.1 0.00 0.00 0.00 33 1024.5
20260508152703 12 109 3.2 9.7 0.00 0.00 0.00 34 1024.5
20260508151803 12 118 3.2 9.7 0.00 0.00 0.00 35 1024.5
20260508151117 12 117 3.2 11.3 0.00 0.00 0.00 36 1024.5
20260508150003 11 110 4.8 14.5 0.00 0.00 0.00 40 1024.5
20260508145403 13 124 3.2 11.3 0.00 0.00 0.00 40 1024.5
20260508144504 14 110 1.6 9.7 0.00 0.00 0.00 38 1024.1
20260508143818 13 110 3.2 11.3 0.00 0.00 0.00 38 1024.1
20260508142703 13 92 1.6 6.4 0.00 0.00 0.00 37 1024.1
20260508141803 14 114 1.6 6.4 0.00 0.00 0.00 44 1024.5
20260508140903 12 124 0.0 3.2 0.00 0.00 0.00 47 1024.5
20260508140218 12 125 1.6 4.8 0.00 0.00 0.00 46 1024.1
20260508135403 12 126 1.6 4.8 0.00 0.00 0.00 48 1024.1
20260508134503 11 109 3.2 6.4 0.00 0.00 0.00 36 1024.1
20260508133818 12 110 3.2 6.4 0.00 0.00 0.00 44 1024.1
20260508132703 12 111 3.2 9.7 0.00 0.00 0.00 42 1024.1
20260508131803 12 107 1.6 6.4 0.00 0.00 0.00 40 1024.1
20260508131118 12 103 1.6 6.4 0.00 0.00 0.00 32 1023.8
20260508130003 11 95 1.6 6.4 0.00 0.00 0.00 39 1023.8
20260508125403 11 103 1.6 6.4 0.00 0.00 0.00 39 1023.8
20260508124503 11 103 1.6 6.4 0.00 0.00 0.00 40 1023.8
20260508123603 10 99 1.6 6.4 0.00 0.00 0.00 49 1023.8
20260508122917 10 95 1.6 4.8 0.00 0.00 0.00 49 1023.4
20260508121804 10 95 0.0 3.2 0.00 0.00 0.00 54 1023.4
20260508120903 8 85 0.0 3.2 0.00 0.00 0.00 56 1023.4
20260508120217 8 89 0.0 3.2 0.00 0.00 0.00 58 1023.0
20260508115403 8 90 0.0 3.2 0.00 0.00 0.00 60 1023.0
20260508114503 8 40 0.0 1.6 0.00 0.00 0.00 61 1023.4
20260508113603 7 0 0.0 0.0 0.00 0.00 0.00 68 1023.0
20260508112703 7 39 0.0 3.2 0.00 0.03 0.00 68 1023.0
20260508111803 6 39 0.0 1.6 0.00 0.05 0.00 72 1022.6
20260508110903 5 39 0.0 1.6 0.00 0.10 0.00 74 1022.6
20260508110003 4 39 0.0 1.6 0.00 0.15 0.00 76 1022.6
20260508105403 3 40 0.0 9.7 0.00 0.15 0.00 77 1022.2
20260508104503 2 39 0.0 9.7 0.00 0.18 0.00 80 1022.2
20260508103603 2 38 0.0 1.6 0.00 0.18 0.00 82 1022.2
20260508102703 2 38 0.0 3.2 0.00 0.18 0.00 83 1022.2
20260508101803 2 38 0.0 1.6 0.00 0.18 0.00 84 1021.8
20260508101117 2 38 0.0 3.2 0.00 0.20 0.00 84 1021.8
20260508100004 2 38 0.0 3.2 0.00 0.23 0.00 85 1021.8
20260508095403 2 38 0.0 3.2 0.00 0.25 0.00 85 1021.4
20260508094503 2 38 1.6 3.2 0.00 0.25 0.00 85 1021.8
20260508093603 2 38 1.6 3.2 0.00 0.25 0.00 86 1021.4
20260508092703 2 38 1.6 4.8 0.00 0.25 0.00 86 1021.4
20260508091803 2 38 1.6 4.8 0.00 0.25 0.00 86 1021.4
20260508090903 2 38 1.6 3.2 0.00 0.25 0.00 87 1021.4
20260508090003 2 102 0.0 3.2 0.00 0.25 0.00 91 1021.4
20260508085403 2 120 0.0 3.2 0.00 0.25 0.00 92 1021.4
20260508084503 2 116 0.0 1.6 0.00 0.25 0.00 92 1021.4
20260508083603 2 111 0.0 4.8 0.00 0.25 0.00 94 1021.4
20260508082703 2 112 0.0 1.6 0.00 0.25 0.00 94 1021.4
20260508081803 2 101 1.6 6.4 0.00 0.25 0.00 93 1021.4
20260508080903 2 80 1.6 4.8 0.00 0.25 0.00 92 1021.4
20260508080003 2 27 1.6 4.8 0.00 0.25 0.00 93 1021.4
20260508075617 2 4 1.6 4.8 0.00 0.25 0.00 93 1021.4
20260508074718 2 24 1.6 4.8 0.00 0.25 0.00 93 1021.4
20260508073603 2 303 1.6 4.8 0.00 0.25 0.00 94 1021.4
20260508072703 2 307 1.6 6.4 0.00 0.25 0.00 95 1021.4
20260508071803 2 265 1.6 6.4 0.00 0.25 0.00 96 1021.4
20260508070903 2 278 1.6 6.4 0.00 0.25 0.00 97 1021.4
20260508070217 2 267 1.6 6.4 0.00 0.25 0.00 98 1021.4
20260508065617 3 329 1.6 6.4 0.00 0.25 0.00 98 1021.4
20260508064503 3 301 0.0 4.8 0.00 0.25 0.00 98 1021.4
20260508063603 3 299 0.0 3.2 0.00 0.25 0.00 98 1021.4
20260508062703 3 334 1.6 3.2 0.00 0.25 0.00 98 1021.4
20260508061803 3 331 1.6 4.8 0.00 0.25 0.00 98 1021.4
20260508060903 3 294 1.6 4.8 0.00 0.25 0.00 98 1021.8
20260508060004 3 321 1.6 11.3 0.00 0.25 0.00 97 1021.8
20260508055403 3 61 1.6 11.3 0.00 0.25 0.00 96 1021.8
20260508054503 3 350 1.6 12.9 0.00 0.25 0.00 95 1021.8
20260508053603 3 357 1.6 9.7 0.00 0.25 0.00 95 1022.2
20260508052703 3 325 3.2 11.3 0.00 0.25 0.00 94 1021.8
20260508051803 3 339 1.6 4.8 0.00 0.25 0.00 94 1022.2
20260508050903 3 337 1.6 9.7 0.00 0.25 0.00 94 1022.2
20260508050003 3 318 1.6 11.3 0.00 0.25 0.00 94 1022.2
20260508045403 3 307 3.2 11.3 0.00 0.25 0.00 95 1021.8
20260508044503 3 312 1.6 9.7 0.00 0.25 0.00 95 1021.8
20260508043603 4 316 3.2 14.5 0.00 0.25 0.00 95 1021.8
20260508042703 4 321 1.6 9.7 0.00 0.25 0.00 97 1021.8
20260508042017 4 325 1.6 9.7 0.00 0.25 0.00 97 1021.8
20260508040903 4 319 0.0 11.3 0.00 0.25 0.00 97 1021.8
20260508040005 4 312 1.6 4.8 0.00 0.25 0.00 97 1021.8
20260508035403 4 278 1.6 4.8 0.00 0.28 0.25 98 1021.8
20260508034503 4 142 1.6 9.7 0.00 0.28 0.25 98 1021.8
20260508033603 4 136 1.6 6.4 0.00 0.28 0.25 97 1021.8
20260508032703 4 69 1.6 11.3 0.00 0.28 0.25 97 1021.8
20260508031803 4 23 1.6 6.4 0.00 0.28 0.25 97 1021.8
20260508030903 4 46 1.6 9.7 0.00 0.28 0.25 97 1021.8
20260508030004 4 346 1.6 12.9 0.00 0.28 0.25 98 1021.8
20260508025403 4 331 1.6 9.7 0.00 0.28 0.25 98 1021.8
20260508024716 4 314 3.2 9.7 0.00 0.28 0.25 98 1021.4
20260508023603 4 5 1.6 9.7 0.00 0.28 0.25 98 1021.8
20260508022703 4 334 1.6 6.4 0.00 0.28 0.25 98 1021.0
20260508021803 4 8 1.6 9.7 0.00 0.28 0.25 99 1021.0
20260508020903 4 98 1.6 6.4 0.00 0.28 0.25 99 1021.0
20260508020003 4 115 1.6 6.4 0.00 0.28 0.25 98 1021.0
20260508015403 4 135 1.6 12.9 0.00 0.28 0.25 98 1021.0
20260508014718 4 115 1.6 6.4 0.00 0.30 0.25 98 1021.0
20260508013603 4 97 1.6 6.4 0.00 0.33 0.25 97 1020.6
20260508012703 4 92 1.6 9.7 0.00 0.36 0.25 98 1020.6
20260508011804 4 130 3.2 9.7 0.00 0.41 0.25 97 1020.6
20260508010903 4 275 1.6 9.7 0.00 0.43 0.25 97 1020.2
20260508010003 5 339 1.6 6.4 0.00 0.46 0.25 95 1020.2
20260508005403 5 315 3.2 9.7 0.00 0.48 0.25 96 1020.2
20260508004718 5 319 1.6 9.7 0.00 0.51 0.25 95 1019.8
20260508003603 5 25 1.6 6.4 0.00 0.53 0.25 95 1019.8
20260508002703 5 328 1.6 9.7 0.00 0.56 0.25 95 1020.2
20260508001803 5 320 3.2 11.3 0.00 0.56 0.25 95 1019.8
20260508001117 5 313 1.6 6.4 0.00 0.58 0.25 95 1019.8
20260508000003 5 316 1.6 9.7 0.00 0.58 0.25 93 1019.8
20260507235403 5 323 1.6 6.4 0.00 0.58 0.25 93 1019.8
20260507234503 6 329 1.6 9.7 0.00 0.58 0.25 93 1020.2
20260507233603 6 338 1.6 12.9 0.00 0.58 0.25 93 1019.8
20260507232703 6 299 1.6 12.9 0.00 0.58 0.25 92 1019.8
20260507231803 6 304 3.2 11.3 0.00 0.61 0.25 91 1019.5
20260507230903 6 198 1.6 9.7 0.00 0.69 0.25 91 1019.8
20260507230003 6 246 3.2 12.9 0.00 0.74 0.25 92 1019.8
20260507225403 6 289 3.2 12.9 0.00 0.76 0.25 91 1019.8
20260507224504 7 318 3.2 14.5 0.00 0.79 0.25 92 1019.8
20260507223603 7 306 3.2 9.7 0.00 0.79 0.25 92 1019.8
20260507222918 7 314 3.2 9.7 0.00 0.81 0.25 92 1019.8
20260507221803 6 304 3.2 11.3 0.00 0.84 0.25 96 1019.8
20260507220903 6 313 4.8 17.7 0.00 0.91 0.25 97 1019.5
20260507220003 6 309 3.2 12.9 0.00 0.94 0.25 95 1019.5
20260507215403 6 307 3.2 12.9 0.00 0.94 0.25 94 1019.5
20260507214503 6 305 3.2 12.9 0.00 0.94 0.25 94 1019.5